[[{"header":{"parameterUnit":"m.s-1","parameterCategory":2,"la1":30.2991,"la2":30.254,"lo1":-89.0895,"lo2":-89.0444,"dy":0.0017,"dx":0.0017,"nx":28,"ny":28,"refTime":"2024-06-23T21:00:00:Z","depth":"0","parameterNumber":2,"parameterNumberName":"U-component_of_CURRENTS"},"data":[0,0,0,0,0,0,0,0,0,0,0,0,0,0,0,0,0,0,0,0,0,0,0,0,0,0,0,0,0,0,0,0,0,0,0,0,0,0,0,0,0,0,0,0,0,0,0,0,0,0,0,0,0,0,0,0,0,0,-0.1498,-0.1499,0,-0.1517,-0.1517,-0.1516,-0.1475,-0.1474,-0.1473,-0.1473,-0.1376,-0.1375,-0.1373,0,0,0,0,0,0,0,0,0,0,0,0,0,-0.1491,-0.1491,-0.1498,-0.1499,-0.15,-0.1517,-0.1517,-0.1516,-0.1475,-0.1474,-0.1473,-0.1472,-0.1377,-0.1375,-0.1373,0,0,0,0,0,0,0,0,0,0,0,0,0,-0.1496,-0.1491,-0.1498,-0.1484,-0.1484,-0.1517,-0.1517,-0.1516,-0.1476,-0.1474,-0.1473,-0.1472,-0.1378,-0.1375,-0.1373,-0.1384,0,0,-0.1365,-0.1364,0,0,0,0,0,0,0,0,-0.1496,-0.1496,-0.1486,-0.1486,-0.1485,-0.1496,-0.1479,-0.1468,-0.1476,-0.1474,-0.1473,-0.1471,-0.141,-0.1405,-0.1406,-0.1379,-0.1375,-0.1364,-0.1363,-0.1362,-0.1361,0,0,0,0,0,0,0,-0.1495,-0.1495,-0.1501,-0.1487,-0.1486,-0.15,-0.1498,-0.1477,-0.1444,-0.1474,-0.1472,-0.1482,-0.1408,-0.1409,-0.1403,-0.1374,-0.1365,-0.1362,-0.1361,-0.136,-0.1393,-0.1395,0,0,0,0,0,0,-0.15,-0.1495,-0.15,-0.1502,-0.1492,-0.1501,-0.1499,-0.149,-0.1446,-0.1441,-0.1483,-0.148,-0.1414,-0.1406,-0.14,-0.1401,-0.1362,-0.1359,-0.1358,-0.139,-0.1393,-0.1396,0,0,0,0,0,0,-0.15,-0.15,-0.15,-0.1504,-0.1505,-0.1503,-0.1494,-0.1491,-0.1488,-0.1455,-0.1446,-0.1482,-0.1413,-0.1403,-0.1387,-0.1396,-0.1358,-0.1356,-0.1388,-0.1391,-0.1395,-0.1408,0,0,0,0,0,0,-0.1499,-0.1499,-0.1495,-0.1503,-0.1505,-0.152,-0.1495,-0.1493,-0.1499,-0.1494,-0.1451,-0.1441,-0.1411,-0.1392,-0.1385,-0.1392,-0.1354,-0.1385,-0.1389,-0.1394,-0.1404,-0.1412,-0.1418,0,0,0,0,0,-0.1499,-0.1509,-0.1494,-0.1495,-0.1498,-0.1521,-0.1523,-0.1514,-0.15,-0.1504,-0.1479,-0.1442,-0.1417,-0.1391,-0.1382,-0.1389,-0.1382,-0.1388,-0.1393,-0.1401,-0.141,-0.1418,0,0,0,0,0,0,-0.151,-0.1506,-0.149,-0.1498,-0.1506,-0.1515,-0.1528,-0.152,-0.1506,-0.1497,-0.1457,-0.1446,-0.1445,-0.1428,-0.1401,-0.1422,-0.1401,-0.1405,-0.141,-0.1418,-0.1424,-0.1442,-0.1352,0,0,0,0,0,-0.151,-0.1507,-0.1511,-0.1517,-0.1524,-0.1523,-0.1532,-0.1525,-0.152,-0.1512,-0.1477,-0.1462,-0.1466,-0.1447,-0.1444,-0.1438,-0.1449,-0.1449,-0.1455,-0.146,-0.1476,-0.1514,-0.1524,-0.1414,-0.1414,-0.1414,0,0,-0.1515,-0.1515,-0.1512,-0.1518,-0.1524,-0.153,-0.1524,-0.1541,-0.1535,-0.1504,-0.1477,-0.148,-0.1476,-0.1477,-0.1476,-0.1454,-0.1499,-0.1467,-0.1471,-0.1484,-0.152,-0.1531,-0.154,-0.1418,-0.1417,-0.1416,0,0,-0.1534,-0.1526,-0.1529,-0.1535,-0.1547,-0.1547,-0.1552,-0.1552,-0.1541,-0.1533,-0.1522,-0.1545,-0.1508,-0.1525,-0.1528,-0.1578,-0.1542,-0.1565,-0.159,-0.1626,-0.1634,-0.1642,-0.1664,-0.1673,-0.1555,-0.1555,-0.1555,0,-0.1543,-0.1533,-0.1539,-0.1546,-0.1546,-0.1552,-0.1553,-0.1555,-0.1543,-0.1542,-0.1526,-0.155,-0.1546,-0.1579,-0.1599,-0.1591,-0.159,-0.1546,-0.1631,-0.1639,-0.1646,-0.1667,-0.1677,-0.1557,-0.1556,-0.1556,-0.1556,0,-0.1554,-0.1548,-0.156,-0.1551,-0.1558,-0.1568,-0.1568,-0.1562,-0.1551,-0.1555,-0.1583,-0.16,-0.1615,-0.1627,-0.162,-0.1676,-0.1651,-0.1639,-0.1599,-0.1657,-0.1676,-0.1687,-0.1558,-0.1558,-0.1558,-0.1557,0,0,-0.1567,-0.1563,-0.1563,-0.155,-0.1556,-0.1561,-0.156,-0.1566,-0.1566,-0.158,-0.1592,-0.1646,-0.1665,-0.1677,-0.1685,-0.1723,-0.1781,-0.1693,-0.1695,-0.1696,-0.1837,-0.1729,-0.173,-0.1758,-0.176,-0.1762,-0.1824,0,-0.1569,-0.1563,-0.1564,-0.1555,-0.155,-0.155,-0.1545,-0.1553,-0.1561,-0.1572,-0.1633,-0.1655,-0.1678,-0.1686,-0.1736,-0.1758,-0.181,-0.1765,-0.1799,-0.18,-0.1681,-0.1739,-0.1596,-0.1631,-0.1835,-0.1836,-0.1837,0,-0.1571,-0.1562,-0.1548,-0.1533,-0.1533,-0.1529,-0.152,-0.152,-0.1555,-0.1563,-0.1618,-0.1649,-0.1721,-0.1732,-0.1828,-0.1782,-0.1827,-0.1858,-0.186,-0.1764,-0.1712,-0.1611,-0.1642,-0.1508,-0.1853,-0.1852,-0.1851,0,-0.1554,-0.1551,-0.153,-0.1525,-0.1515,-0.1506,-0.15,-0.1518,-0.1516,-0.1562,-0.1572,-0.1658,-0.1684,-0.1766,-0.183,-0.182,-0.1923,-0.1916,-0.188,-0.1873,-0.1765,-0.1743,-0.1655,-0.2023,-0.2023,-0.2023,-0.2022,0,-0.1546,-0.1532,-0.1518,-0.1503,-0.1477,-0.1485,-0.147,-0.1475,-0.1499,-0.1501,-0.1569,-0.1586,-0.169,-0.1751,-0.1828,-0.1867,-0.1925,-0.1903,-0.1888,-0.1764,-0.1742,-0.1631,-0.1702,-0.2025,-0.2024,-0.2024,-0.2024,0,-0.1529,-0.1522,-0.1496,-0.1475,-0.1465,-0.1446,-0.1429,-0.1423,-0.1449,-0.1455,-0.1467,-0.1529,-0.1588,-0.1696,-0.181,-0.1834,-0.1862,-0.192,-0.1756,-0.1719,-0.1523,-0.1605,-0.1702,-0.1655,-0.1878,-0.1876,-0.1874,0,-0.152,-0.15,-0.1462,-0.1439,-0.1427,-0.1401,-0.1376,-0.1388,-0.1384,-0.1411,-0.1411,-0.1469,-0.1486,-0.1598,-0.1664,-0.1764,-0.1803,-0.1679,-0.1655,-0.1496,-0.1579,-0.1671,-0.1632,-0.1528,-0.1523,-0.152,-0.1517,0,-0.149,-0.1473,-0.1447,-0.1396,-0.1364,-0.1324,-0.1298,-0.1284,-0.1297,-0.1306,-0.1297,-0.131,-0.1381,-0.1385,-0.1492,-0.154,-0.1585,-0.1602,-0.1491,-0.1352,-0.1402,-0.1349,-0.1498,-0.1484,-0.1487,-0.1489,-0.1491,-0.1493,-0.146,-0.1431,-0.139,-0.1344,-0.1302,-0.124,-0.119,-0.1182,-0.1156,-0.1144,-0.119,-0.12,-0.1192,-0.1297,-0.1264,-0.1125,-0.1391,-0.1113,-0.1245,-0.1362,-0.1261,-0.1322,-0.1247,-0.1249,-0.125,-0.1252,-0.1253,0,-0.1406,-0.1373,-0.1334,-0.1263,-0.1199,-0.1196,-0.1126,-0.1071,-0.1019,-0.1049,-0.1043,-0.107,-0.0982,-0.0931,-0.083,-0.0774,-0.0775,-0.0775,-0.0848,-0.0839,-0.0888,-0.0798,-0.0554,-0.0555,-0.0555,-0.0555,-0.0555,-0.0555,-0.137,-0.1312,-0.1289,-0.1174,-0.1128,-0.102,-0.0967,-0.0899,-0.0888,-0.0858,-0.0897,-0.0933,-0.0845,-0.0855,-0.0598,-0.0527,-0.0537,-0.0608,-0.0677,-0.0639,-0.0678,-0.0715,-0.0631,-0.0357,-0.0358,-0.0481,-0.0483,-0.0484]},{"header":{"parameterUnit":"m.s-1","parameterCategory":2,"la1":30.2991,"la2":30.254,"lo1":-89.0895,"lo2":-89.0444,"dy":0.0017,"dx":0.0017,"nx":28,"ny":28,"refTime":"2024-06-23T21:00:00:Z","depth":"0","parameterNumber":3,"parameterNumberName":"V-component_of_CURRENTS"},"data":[0,0,0,0,0,0,0,0,0,0,0,0,0,0,0,0,0,0,0,0,0,0,0,0,0,0,0,0,0,0,0,0,0,0,0,0,0,0,0,0,0,0,0,0,0,0,0,0,0,0,0,0,0,0,0,0,0,0,-0.1106,-0.1108,0,-0.1239,-0.124,-0.1242,-0.1302,-0.1302,-0.1302,-0.1302,-0.1284,-0.1284,-0.1283,0,0,0,0,0,0,0,0,0,0,0,0,0,-0.092,-0.0923,-0.1106,-0.1108,-0.111,-0.1239,-0.124,-0.1242,-0.1302,-0.1302,-0.1302,-0.1302,-0.1284,-0.1284,-0.1283,0,0,0,0,0,0,0,0,0,0,0,0,0,-0.102,-0.0924,-0.1106,-0.1156,-0.1162,-0.1238,-0.124,-0.1242,-0.1302,-0.1302,-0.1302,-0.1302,-0.1284,-0.1284,-0.1283,-0.128,0,0,-0.1281,-0.1281,0,0,0,0,0,0,0,0,-0.1015,-0.1027,-0.1147,-0.1153,-0.1159,-0.1255,-0.1169,-0.1248,-0.1302,-0.1247,-0.1302,-0.1302,-0.1261,-0.1262,-0.1288,-0.1279,-0.1278,-0.1281,-0.1281,-0.128,-0.128,0,0,0,0,0,0,0,-0.1008,-0.1022,-0.1157,-0.1149,-0.1156,-0.1177,-0.1191,-0.1185,-0.1249,-0.1252,-0.1257,-0.1274,-0.1263,-0.1289,-0.1287,-0.1278,-0.1281,-0.128,-0.128,-0.128,-0.1307,-0.1308,0,0,0,0,0,0,-0.0994,-0.1015,-0.1153,-0.1162,-0.1087,-0.1181,-0.1196,-0.1223,-0.1253,-0.1259,-0.1274,-0.1276,-0.129,-0.1288,-0.1287,-0.1333,-0.128,-0.128,-0.1279,-0.1306,-0.1308,-0.1309,0,0,0,0,0,0,-0.0989,-0.1005,-0.1148,-0.1091,-0.1111,-0.1184,-0.1214,-0.1226,-0.1256,-0.1271,-0.1274,-0.1291,-0.129,-0.1288,-0.1304,-0.133,-0.1279,-0.1279,-0.1305,-0.1307,-0.1308,-0.1393,0,0,0,0,0,0,-0.0983,-0.1003,-0.1007,-0.1091,-0.1114,-0.1203,-0.1214,-0.1229,-0.1266,-0.1271,-0.1286,-0.1285,-0.1289,-0.1306,-0.1304,-0.1328,-0.1278,-0.1303,-0.1306,-0.1308,-0.1389,-0.1397,-0.1405,0,0,0,0,0,-0.0977,-0.0989,-0.1007,-0.1023,-0.1122,-0.1205,-0.1219,-0.1268,-0.1267,-0.1291,-0.1306,-0.1285,-0.1317,-0.1306,-0.1304,-0.1329,-0.1302,-0.1305,-0.1308,-0.1385,-0.1396,-0.1405,0,0,0,0,0,0,-0.0912,-0.0999,-0.102,-0.1058,-0.1129,-0.1215,-0.1236,-0.1267,-0.1301,-0.1293,-0.1301,-0.1302,-0.1329,-0.1311,-0.1299,-0.1342,-0.1305,-0.1307,-0.1365,-0.1374,-0.1382,-0.1407,-0.1278,0,0,0,0,0,-0.0899,-0.0931,-0.1021,-0.1052,-0.1084,-0.1156,-0.1189,-0.1229,-0.1275,-0.1291,-0.1309,-0.1318,-0.1338,-0.1341,-0.1352,-0.1368,-0.1353,-0.1381,-0.1389,-0.1396,-0.1415,-0.1411,-0.1421,-0.1317,-0.1317,-0.1317,0,0,-0.0886,-0.0933,-0.0954,-0.1039,-0.1092,-0.1167,-0.1177,-0.1234,-0.1299,-0.1278,-0.1347,-0.1344,-0.1349,-0.1387,-0.1395,-0.1374,-0.1418,-0.1399,-0.1406,-0.1421,-0.1415,-0.1425,-0.1434,-0.1319,-0.1319,-0.1318,0,0,-0.0884,-0.0917,-0.095,-0.1014,-0.1095,-0.1156,-0.1173,-0.1263,-0.1302,-0.1365,-0.137,-0.14,-0.1415,-0.1451,-0.1462,-0.1515,-0.1462,-0.149,-0.1551,-0.1547,-0.1556,-0.1563,-0.1558,-0.1564,-0.1492,-0.1492,-0.1492,0,-0.086,-0.0927,-0.0972,-0.1031,-0.1094,-0.1155,-0.1228,-0.1286,-0.1371,-0.1408,-0.1393,-0.1461,-0.1465,-0.1531,-0.1555,-0.1539,-0.1507,-0.1516,-0.1559,-0.1565,-0.1572,-0.1564,-0.157,-0.1497,-0.1496,-0.1496,-0.1495,0,-0.0911,-0.096,-0.0987,-0.1093,-0.1161,-0.123,-0.1329,-0.1387,-0.143,-0.1488,-0.1554,-0.1571,-0.1612,-0.1613,-0.1604,-0.1651,-0.1605,-0.1571,-0.1536,-0.1587,-0.1576,-0.1581,-0.1503,-0.1501,-0.15,-0.1499,0,0,-0.0885,-0.0998,-0.1013,-0.1071,-0.1202,-0.1272,-0.1376,-0.1497,-0.1563,-0.1621,-0.1699,-0.1751,-0.1741,-0.1753,-0.1737,-0.1739,-0.1764,-0.1667,-0.1665,-0.1667,-0.1735,-0.1631,-0.1626,-0.1711,-0.1712,-0.1713,-0.171,0,-0.092,-0.1023,-0.1086,-0.1211,-0.1284,-0.1377,-0.1474,-0.1581,-0.1655,-0.1737,-0.1769,-0.182,-0.1798,-0.1798,-0.1809,-0.1774,-0.1778,-0.1767,-0.1681,-0.168,-0.1585,-0.1629,-0.1466,-0.1441,-0.1714,-0.1715,-0.1715,0,-0.0978,-0.1034,-0.1148,-0.1277,-0.1319,-0.1403,-0.1569,-0.1657,-0.1779,-0.1821,-0.1883,-0.1895,-0.1945,-0.1888,-0.189,-0.1868,-0.1815,-0.1781,-0.1779,-0.1659,-0.1585,-0.1433,-0.1439,-0.1084,-0.1722,-0.1721,-0.1721,0,-0.0975,-0.1096,-0.1183,-0.1236,-0.1384,-0.145,-0.1536,-0.1678,-0.1755,-0.1861,-0.1905,-0.1964,-0.1977,-0.1946,-0.1914,-0.1878,-0.1887,-0.183,-0.1699,-0.1691,-0.1528,-0.1503,-0.1186,-0.1821,-0.1821,-0.1821,-0.1821,0,-0.1023,-0.1093,-0.1179,-0.1235,-0.1339,-0.1441,-0.1565,-0.1656,-0.177,-0.1867,-0.1925,-0.1994,-0.198,-0.1994,-0.1942,-0.1852,-0.1916,-0.1726,-0.1687,-0.1551,-0.1529,-0.1193,-0.1088,-0.1821,-0.1821,-0.1821,-0.1821,0,-0.1038,-0.1094,-0.1188,-0.1305,-0.1344,-0.1421,-0.1569,-0.1657,-0.175,-0.1871,-0.1897,-0.2004,-0.2042,-0.2038,-0.1999,-0.1872,-0.1617,-0.1756,-0.1602,-0.1544,-0.1038,-0.0948,-0.0773,-0.0621,-0.1582,-0.158,-0.1578,0,-0.1059,-0.1107,-0.1217,-0.1269,-0.1325,-0.1434,-0.1519,-0.1637,-0.1733,-0.189,-0.195,-0.2022,-0.212,-0.2043,-0.1882,-0.1778,-0.1562,-0.1448,-0.1354,-0.0989,-0.0861,-0.0858,-0.0743,-0.1177,-0.1172,-0.1168,-0.1164,0,-0.109,-0.1124,-0.1195,-0.1289,-0.1375,-0.1478,-0.1599,-0.1664,-0.1812,-0.1911,-0.2058,-0.2139,-0.2094,-0.195,-0.176,-0.1609,-0.1155,-0.135,-0.1006,-0.055,-0.0496,-0.0337,-0.1205,-0.1126,-0.113,-0.1133,-0.1135,-0.1136,-0.1099,-0.1151,-0.1233,-0.1332,-0.1414,-0.1523,-0.1609,-0.1735,-0.1869,-0.2033,-0.2115,-0.2212,-0.1881,-0.164,-0.144,-0.0746,-0.0937,-0.0451,-0.0389,-0.0431,-0.0219,-0.1005,-0.0855,-0.0858,-0.0859,-0.0861,-0.0863,0,-0.1114,-0.1187,-0.1278,-0.1396,-0.1482,-0.1526,-0.167,-0.1752,-0.1897,-0.2036,-0.2172,-0.1915,-0.1505,-0.1066,-0.0246,0.0203,0.0272,0.046,0.0565,0.0623,-0.0058,0.0041,0.0434,0.0434,0.0434,0.0433,0.0433,0.0433,-0.1125,-0.1219,-0.128,-0.1428,-0.1505,-0.1617,-0.1689,-0.179,-0.1887,-0.1938,-0.1887,-0.1886,-0.1054,0.0152,0.1069,0.1178,0.1473,0.1417,0.1502,0.1158,0.108,0.1006,0.1135,0.1751,0.1752,0.2219,0.2225,0.2229]}],[{"header":{"parameterUnit":"m.s-1","parameterCategory":2,"la1":30.2991,"la2":30.254,"lo1":-89.0895,"lo2":-89.0444,"dy":0.0017,"dx":0.0017,"nx":28,"ny":28,"refTime":"2024-06-23T21:00:00:Z","depth":"2","parameterNumber":2,"parameterNumberName":"U-component_of_CURRENTS"},"data":[0,0,0,0,0,0,0,0,0,0,0,0,0,0,0,0,0,0,0,0,0,0,0,0,0,0,0,0,0,0,0,0,0,0,0,0,0,0,0,0,0,0,0,0,0,0,0,0,0,0,0,0,0,0,0,0,0,0,-0.2711,-0.2711,0,-0.2651,-0.2649,-0.2648,-0.2644,-0.2646,-0.2647,-0.2649,-0.2597,-0.2595,-0.2592,0,0,0,0,0,0,0,0,0,0,0,0,0,-0.2532,-0.2536,-0.2711,-0.2711,-0.2712,-0.2651,-0.2649,-0.2648,-0.2644,-0.2646,-0.2648,-0.265,-0.2598,-0.2595,-0.2592,0,0,0,0,0,0,0,0,0,0,0,0,0,-0.2545,-0.2537,-0.2711,-0.271,-0.271,-0.2652,-0.2649,-0.2647,-0.2643,-0.2646,-0.2648,-0.265,-0.26,-0.2595,-0.2591,-0.2516,0,0,-0.2578,-0.2576,0,0,0,0,0,0,0,0,-0.2545,-0.2551,-0.271,-0.271,-0.271,-0.2667,-0.2568,-0.2607,-0.2643,-0.2658,-0.2649,-0.2652,-0.2626,-0.262,-0.2588,-0.2514,-0.2512,-0.2578,-0.2575,-0.2573,-0.2572,0,0,0,0,0,0,0,-0.2544,-0.2552,-0.2677,-0.271,-0.271,-0.2613,-0.2619,-0.2573,-0.2621,-0.2657,-0.2659,-0.2668,-0.2625,-0.2593,-0.2588,-0.2511,-0.2578,-0.2574,-0.2571,-0.257,-0.2319,-0.2315,0,0,0,0,0,0,-0.2586,-0.2553,-0.2679,-0.2676,-0.2643,-0.2616,-0.2623,-0.267,-0.2622,-0.262,-0.2666,-0.2668,-0.2599,-0.2593,-0.2586,-0.2549,-0.2573,-0.2569,-0.2567,-0.2323,-0.2318,-0.2314,0,0,0,0,0,0,-0.2583,-0.2599,-0.2682,-0.2618,-0.2623,-0.262,-0.2671,-0.2667,-0.2658,-0.263,-0.2627,-0.2665,-0.26,-0.2592,-0.248,-0.2545,-0.2567,-0.2563,-0.2328,-0.2322,-0.2316,-0.244,0,0,0,0,0,0,-0.2578,-0.2599,-0.2624,-0.2623,-0.2629,-0.2587,-0.2669,-0.2665,-0.2664,-0.2666,-0.2628,-0.2624,-0.2602,-0.2486,-0.2476,-0.254,-0.256,-0.2333,-0.2325,-0.2318,-0.2441,-0.2439,-0.2437,0,0,0,0,0,-0.2572,-0.2602,-0.2626,-0.264,-0.2674,-0.2583,-0.2571,-0.257,-0.2662,-0.2587,-0.2567,-0.2627,-0.2434,-0.2477,-0.2467,-0.2532,-0.2337,-0.2327,-0.2319,-0.2442,-0.2439,-0.2437,0,0,0,0,0,0,-0.2512,-0.2605,-0.2632,-0.2684,-0.2611,-0.2585,-0.2566,-0.258,-0.2512,-0.2564,-0.2547,-0.2533,-0.2464,-0.2432,-0.2482,-0.2418,-0.2407,-0.2395,-0.2504,-0.2501,-0.2499,-0.261,-0.2556,0,0,0,0,0,-0.2522,-0.2592,-0.2583,-0.2611,-0.2601,-0.2592,-0.2569,-0.2571,-0.2531,-0.2511,-0.2472,-0.2448,-0.2411,-0.2403,-0.2322,-0.2285,-0.2306,-0.2315,-0.2313,-0.2313,-0.2382,-0.2434,-0.2449,-0.2284,-0.2284,-0.2284,0,0,-0.2511,-0.2569,-0.2607,-0.2603,-0.2591,-0.2523,-0.2581,-0.2559,-0.2528,-0.2515,-0.245,-0.2417,-0.2378,-0.2322,-0.2298,-0.2322,-0.2344,-0.2301,-0.2304,-0.2374,-0.2427,-0.2446,-0.2462,-0.2278,-0.2279,-0.228,0,0,-0.2458,-0.2573,-0.2568,-0.2513,-0.2497,-0.2501,-0.2499,-0.2459,-0.2471,-0.2375,-0.2399,-0.2408,-0.2274,-0.2318,-0.2323,-0.2257,-0.2306,-0.2212,-0.2348,-0.2396,-0.2415,-0.2432,-0.2412,-0.2427,-0.225,-0.225,-0.225,0,-0.2405,-0.2447,-0.252,-0.2449,-0.2447,-0.2496,-0.2435,-0.2424,-0.2339,-0.2396,-0.2349,-0.2339,-0.2307,-0.2393,-0.2366,-0.2284,-0.227,-0.2387,-0.2412,-0.2429,-0.2445,-0.2421,-0.2436,-0.2255,-0.2254,-0.2254,-0.2253,0,-0.2303,-0.2323,-0.2314,-0.2299,-0.2275,-0.2243,-0.2262,-0.2275,-0.234,-0.235,-0.2407,-0.2367,-0.241,-0.239,-0.2365,-0.2485,-0.2417,-0.2389,-0.2463,-0.2473,-0.244,-0.2454,-0.2262,-0.226,-0.2259,-0.2257,0,0,-0.2189,-0.2241,-0.2222,-0.2242,-0.2228,-0.2218,-0.2246,-0.23,-0.2425,-0.2369,-0.2486,-0.2486,-0.2571,-0.258,-0.2597,-0.2662,-0.2732,-0.2588,-0.2588,-0.2647,-0.2784,-0.2554,-0.2546,-0.2711,-0.2716,-0.2719,-0.2697,0,-0.2062,-0.2002,-0.2054,-0.2011,-0.2008,-0.212,-0.2158,-0.2243,-0.2337,-0.2426,-0.2556,-0.26,-0.2613,-0.2674,-0.2757,-0.2709,-0.2782,-0.2738,-0.2699,-0.2698,-0.2561,-0.2561,-0.2274,-0.2216,-0.271,-0.2712,-0.2714,0,-0.191,-0.1927,-0.1881,-0.2026,-0.204,-0.2028,-0.2269,-0.2305,-0.2494,-0.2567,-0.273,-0.2765,-0.2898,-0.2866,-0.2954,-0.2911,-0.289,-0.2861,-0.2858,-0.2639,-0.2497,-0.2287,-0.2222,-0.2737,-0.2735,-0.2733,-0.2732,0,-0.185,-0.183,-0.1857,-0.1852,-0.1963,-0.2051,-0.2168,-0.2369,-0.2472,-0.2678,-0.2731,-0.2914,-0.2949,-0.3011,-0.2963,-0.2959,-0.2985,-0.2964,-0.276,-0.274,-0.2492,-0.2443,-0.3068,-0.3068,-0.3068,-0.3068,-0.3068,0,-0.1747,-0.1757,-0.1845,-0.184,-0.194,-0.2058,-0.2235,-0.2381,-0.2576,-0.2666,-0.2821,-0.2877,-0.2981,-0.2989,-0.299,-0.2886,-0.3019,-0.2807,-0.2743,-0.2503,-0.2458,-0.2919,-0.2902,-0.3067,-0.3067,-0.3068,-0.3068,0,-0.1674,-0.1713,-0.1731,-0.185,-0.1903,-0.199,-0.2215,-0.2357,-0.2537,-0.2647,-0.2686,-0.2821,-0.2831,-0.289,-0.2921,-0.2852,-0.2815,-0.2756,-0.2427,-0.2325,-0.2535,-0.2523,-0.2549,-0.2541,-0.2534,-0.2529,-0.2524,0,-0.1649,-0.1649,-0.1707,-0.1737,-0.1787,-0.1945,-0.2072,-0.2305,-0.2411,-0.2577,-0.258,-0.2643,-0.2655,-0.2611,-0.2528,-0.2485,-0.2647,-0.2149,-0.2126,-0.2559,-0.2495,-0.2493,-0.249,-0.1818,-0.1807,-0.1799,-0.1793,0,-0.1602,-0.1608,-0.162,-0.1659,-0.1745,-0.1866,-0.2036,-0.2084,-0.2317,-0.2376,-0.2413,-0.2436,-0.2377,-0.2186,-0.2094,-0.2027,-0.2134,-0.1973,-0.2544,-0.1973,-0.1862,-0.1801,-0.1824,-0.172,-0.1727,-0.1732,-0.1736,-0.1739,-0.1564,-0.1546,-0.1558,-0.1598,-0.1678,-0.1769,-0.1833,-0.1955,-0.2053,-0.2127,-0.2202,-0.2154,-0.2083,-0.1835,-0.1681,-0.1491,-0.1679,-0.1543,-0.1573,-0.1611,-0.151,-0.1392,-0.1139,-0.1143,-0.1146,-0.1149,-0.1152,0,-0.1552,-0.1546,-0.1539,-0.1573,-0.1625,-0.1699,-0.1796,-0.1816,-0.1832,-0.1949,-0.1993,-0.17,-0.151,-0.1437,-0.1017,-0.089,-0.0948,-0.0817,-0.0895,-0.096,-0.1021,-0.0899,-0.0363,-0.0362,-0.0361,-0.036,0,0,-0.1545,-0.1522,-0.1498,-0.1526,-0.1558,-0.1587,-0.1604,-0.1578,-0.1633,-0.16,-0.1561,-0.175,-0.1548,-0.1127,-0.0898,-0.059,-0.0848,-0.0535,-0.115,-0.1327,-0.1391,-0.1375,-0.125,0,0,0,0,0]},{"header":{"parameterUnit":"m.s-1","parameterCategory":2,"la1":30.2991,"la2":30.254,"lo1":-89.0895,"lo2":-89.0444,"dy":0.0017,"dx":0.0017,"nx":28,"ny":28,"refTime":"2024-06-23T21:00:00:Z","depth":"2","parameterNumber":3,"parameterNumberName":"V-component_of_CURRENTS"},"data":[0,0,0,0,0,0,0,0,0,0,0,0,0,0,0,0,0,0,0,0,0,0,0,0,0,0,0,0,0,0,0,0,0,0,0,0,0,0,0,0,0,0,0,0,0,0,0,0,0,0,0,0,0,0,0,0,0,0,0.0761,0.0762,0,0.0861,0.0862,0.0863,0.0937,0.0937,0.0938,0.0939,0.1104,0.1108,0.1111,0,0,0,0,0,0,0,0,0,0,0,0,0,0.0643,0.0645,0.0761,0.0762,0.0764,0.0861,0.0862,0.0863,0.0936,0.0937,0.0938,0.0939,0.1103,0.1107,0.1112,0,0,0,0,0,0,0,0,0,0,0,0,0,0.0713,0.0645,0.0761,0.0812,0.0818,0.086,0.0862,0.0864,0.0936,0.0937,0.0938,0.0939,0.1101,0.1107,0.1112,0.1128,0,0,0.113,0.1132,0,0,0,0,0,0,0,0,0.0709,0.0717,0.0803,0.0809,0.0815,0.0888,0.0881,0.0955,0.0936,0.0891,0.0939,0.094,0.1037,0.1048,0.1063,0.1135,0.1142,0.113,0.1134,0.1136,0.1138,0,0,0,0,0,0,0,0.0704,0.0714,0.08,0.0804,0.0812,0.0833,0.0844,0.0895,0.0958,0.0895,0.0901,0.0912,0.1041,0.1058,0.1068,0.1145,0.113,0.1135,0.1139,0.1141,0.1104,0.11,0,0,0,0,0,0,0.0691,0.0709,0.0797,0.0803,0.0764,0.0834,0.0847,0.0863,0.0957,0.0971,0.0911,0.0915,0.1047,0.1061,0.1074,0.1055,0.1136,0.1141,0.1145,0.1109,0.1103,0.1099,0,0,0,0,0,0,0.0688,0.0698,0.0793,0.0758,0.0772,0.0835,0.0853,0.0864,0.0871,0.0968,0.0984,0.0905,0.1049,0.1066,0.1056,0.1064,0.1144,0.1149,0.1114,0.1107,0.1101,0.1044,0,0,0,0,0,0,0.0684,0.0697,0.0672,0.0758,0.0774,0.0778,0.0853,0.0866,0.0877,0.0883,0.0968,0.0985,0.1051,0.1046,0.1062,0.1073,0.1153,0.1119,0.1111,0.1103,0.1052,0.1037,0.1024,0,0,0,0,0,0.068,0.0649,0.067,0.0679,0.0748,0.0775,0.0783,0.0833,0.0876,0.0849,0.0888,0.0982,0.1006,0.1047,0.1066,0.108,0.1123,0.1113,0.1104,0.1058,0.104,0.1024,0,0,0,0,0,0,0.058,0.0656,0.0681,0.0673,0.0701,0.0787,0.077,0.0815,0.0829,0.0842,0.0933,0.0949,0.0943,0.0985,0.1029,0.1028,0.1078,0.1071,0.1036,0.102,0.1006,0.1029,0.1158,0,0,0,0,0,0.0547,0.054,0.0617,0.0597,0.0617,0.069,0.0701,0.0744,0.0785,0.0795,0.0846,0.0888,0.0917,0.0945,0.0965,0.0976,0.1003,0.0984,0.097,0.0959,0.0978,0.1003,0.0997,0.1066,0.1066,0.1066,0,0,0.0503,0.0538,0.0535,0.0572,0.061,0.0618,0.0698,0.0714,0.0716,0.0811,0.0801,0.0839,0.0897,0.0898,0.0902,0.0943,0.0931,0.0946,0.0938,0.0964,0.0993,0.0988,0.0983,0.106,0.1061,0.1062,0,0,0.0431,0.0448,0.0434,0.0449,0.0494,0.054,0.0538,0.0608,0.063,0.0622,0.0691,0.0724,0.0749,0.0816,0.0851,0.0766,0.0843,0.0753,0.074,0.0763,0.076,0.0758,0.0715,0.071,0.0766,0.0766,0.0766,0,0.0373,0.0375,0.0423,0.0416,0.0423,0.05,0.0494,0.0519,0.0565,0.0593,0.0594,0.0669,0.0724,0.0786,0.075,0.0753,0.0738,0.0819,0.0754,0.0753,0.0752,0.071,0.0705,0.0762,0.0762,0.0763,0.0763,0,0.0315,0.03,0.0289,0.031,0.0313,0.0312,0.0372,0.0375,0.0413,0.0468,0.0504,0.0565,0.0625,0.064,0.068,0.0708,0.0683,0.0728,0.0821,0.0744,0.07,0.0696,0.0756,0.0758,0.0759,0.076,0,0,0.024,0.0251,0.0244,0.0236,0.0264,0.027,0.0267,0.0313,0.0343,0.0376,0.0411,0.0479,0.0543,0.0582,0.0649,0.069,0.0656,0.0699,0.0702,0.0696,0.0641,0.072,0.0724,0.0688,0.0688,0.0689,0.059,0,0.0184,0.0149,0.0172,0.0125,0.0119,0.0171,0.0166,0.0214,0.0263,0.0298,0.0407,0.0437,0.0512,0.0535,0.0592,0.0636,0.0652,0.0675,0.0682,0.0681,0.0799,0.0727,0.079,0.0718,0.0587,0.0587,0.0586,0,0.013,0.0114,0.0074,0.0063,0.0069,0.0049,0.0086,0.0093,0.018,0.0215,0.03,0.0364,0.0432,0.0487,0.0561,0.056,0.0589,0.0629,0.0627,0.0738,0.0758,0.0782,0.0718,0.0581,0.0582,0.0582,0.0582,0,0.0071,0.0041,0.0006,-0.0002,0.0005,-0.0001,0.0005,0.0078,0.0086,0.0157,0.0158,0.0277,0.0284,0.0374,0.0449,0.0485,0.0504,0.0568,0.0665,0.0667,0.0747,0.0759,0.0613,0.0613,0.0614,0.0614,0.0614,0,0.0007,-0.0026,-0.0026,-0.005,-0.0083,-0.0058,-0.0069,-0.0035,0.0002,0.0002,0.0105,0.0113,0.0252,0.029,0.0391,0.0499,0.0448,0.0655,0.0666,0.0716,0.0725,0.065,0.0656,0.061,0.0611,0.0612,0.0612,0,-0.0047,-0.0051,-0.0092,-0.0103,-0.0112,-0.0135,-0.0155,-0.0154,-0.0124,-0.0135,-0.0143,-0.0062,-0.0023,0.0107,0.0215,0.0398,0.051,0.0555,0.0573,0.0594,0.0662,0.0664,0.0669,0.0672,0.0674,0.0675,0.0677,0,-0.007,-0.0098,-0.0135,-0.0165,-0.0176,-0.021,-0.0228,-0.0218,-0.0233,-0.0236,-0.0259,-0.024,-0.0184,0.0004,0.0279,0.0462,0.0441,0.0665,0.081,0.0667,0.0676,0.0676,0.0675,0.0833,0.0836,0.0838,0.0839,0,-0.0114,-0.0127,-0.0153,-0.0212,-0.0255,-0.0313,-0.0354,-0.0394,-0.0392,-0.0408,-0.0436,-0.0399,-0.0194,0.0103,0.0387,0.0514,0.0663,0.0721,0.0551,0.0842,0.0824,0.0833,0.0826,0.0858,0.0856,0.0855,0.0854,0.0853,-0.0134,-0.0164,-0.02,-0.0258,-0.0319,-0.0412,-0.0462,-0.0505,-0.0554,-0.0559,-0.0529,-0.0333,-0.0014,0.0496,0.0575,0.0718,0.078,0.0926,0.0917,0.0907,0.0978,0.0969,0.1036,0.1036,0.1035,0.1034,0.1034,0,-0.0167,-0.0206,-0.025,-0.0333,-0.0415,-0.0448,-0.0538,-0.0556,-0.0617,-0.0537,-0.0513,-0.0021,0.0315,0.0545,0.0862,0.1034,0.0969,0.0985,0.0936,0.0925,0.0912,0.0978,0.1038,0.1037,0.1035,0.1034,0,0,-0.0188,-0.0232,-0.0254,-0.0392,-0.0472,-0.0576,-0.0636,-0.0641,-0.0558,-0.0436,-0.0181,0.0104,0.0524,0.0761,0.0883,0.0959,0.0843,0.0906,0.0926,0.0842,0.0823,0.0948,0.1048,0,0,0,0,0]}],[{"header":{"parameterUnit":"m.s-1","parameterCategory":2,"la1":30.2991,"la2":30.254,"lo1":-89.0895,"lo2":-89.0444,"dy":0.0017,"dx":0.0017,"nx":28,"ny":28,"refTime":"2024-06-23T21:00:00:Z","depth":"4","parameterNumber":2,"parameterNumberName":"U-component_of_CURRENTS"},"data":[0,0,0,0,0,0,0,0,0,0,0,0,0,0,0,0,0,0,0,0,0,0,0,0,0,0,0,0,0,0,0,0,0,0,0,0,0,0,0,0,0,0,0,0,0,0,0,0,0,0,0,0,0,0,0,0,0,0,-0.1108,-0.1109,0,-0.1185,-0.1186,-0.1187,-0.1238,-0.1238,-0.1238,-0.1238,-0.1319,-0.1321,-0.1323,0,0,0,0,0,0,0,0,0,0,0,0,0,-0.108,-0.108,-0.1108,-0.1109,-0.111,-0.1185,-0.1186,-0.1187,-0.1238,-0.1238,-0.1238,-0.1238,-0.1319,-0.1321,-0.1323,0,0,0,0,0,0,0,0,0,0,0,0,0,-0.1121,-0.108,-0.1108,-0.1142,-0.1145,-0.1184,-0.1186,-0.1188,-0.1238,-0.1238,-0.1238,-0.1238,-0.1318,-0.1321,-0.1324,-0.134,0,0,-0.1333,-0.1335,0,0,0,0,0,0,0,0,-0.1118,-0.1122,-0.1136,-0.114,-0.1144,-0.12,-0.1206,-0.1238,-0.1238,-0.1205,-0.1238,-0.1238,-0.1278,-0.1284,-0.1302,-0.1344,-0.1347,-0.1334,-0.1335,-0.1337,-0.1338,0,0,0,0,0,0,0,-0.1115,-0.1119,-0.1141,-0.1137,-0.1141,-0.1179,-0.1184,-0.1213,-0.1242,-0.1208,-0.1211,-0.1216,-0.128,-0.1299,-0.1304,-0.1349,-0.1334,-0.1336,-0.1338,-0.1339,-0.1478,-0.148,0,0,0,0,0,0,-0.1096,-0.1116,-0.1139,-0.1143,-0.1128,-0.1179,-0.1185,-0.1184,-0.1242,-0.125,-0.1216,-0.1218,-0.1293,-0.1301,-0.1307,-0.1396,-0.1337,-0.134,-0.1342,-0.1476,-0.1478,-0.148,0,0,0,0,0,0,-0.1095,-0.1097,-0.1136,-0.113,-0.1137,-0.1178,-0.1177,-0.1185,-0.1226,-0.1247,-0.1256,-0.125,-0.1294,-0.1303,-0.1367,-0.1396,-0.1341,-0.1344,-0.1474,-0.1477,-0.1479,-0.153,0,0,0,0,0,0,-0.1094,-0.1096,-0.1105,-0.1128,-0.1136,-0.1184,-0.1177,-0.1186,-0.1225,-0.123,-0.1278,-0.1285,-0.1295,-0.1363,-0.1371,-0.14,-0.1346,-0.1472,-0.1475,-0.1478,-0.1526,-0.1534,-0.1541,0,0,0,0,0,-0.1093,-0.1102,-0.1105,-0.1108,-0.1141,-0.1185,-0.1195,-0.1225,-0.1227,-0.126,-0.1295,-0.1285,-0.1389,-0.1368,-0.1376,-0.1407,-0.147,-0.1474,-0.1478,-0.1523,-0.1533,-0.1541,0,0,0,0,0,0,-0.1101,-0.1108,-0.1112,-0.1125,-0.1162,-0.1193,-0.122,-0.1238,-0.1292,-0.1299,-0.1315,-0.1326,-0.1387,-0.1395,-0.1371,-0.1457,-0.1425,-0.1431,-0.1456,-0.1465,-0.1473,-0.1444,-0.1349,0,0,0,0,0,-0.1102,-0.1108,-0.1131,-0.1146,-0.1161,-0.1194,-0.1219,-0.1244,-0.1283,-0.1307,-0.1344,-0.1378,-0.1407,-0.1436,-0.1465,-0.1521,-0.1499,-0.1544,-0.1552,-0.1558,-0.1542,-0.1532,-0.1536,-0.1494,-0.1494,-0.1494,0,0,-0.1109,-0.1113,-0.1119,-0.1149,-0.1174,-0.1217,-0.1212,-0.1258,-0.1303,-0.1307,-0.1388,-0.1407,-0.1427,-0.1487,-0.1515,-0.1502,-0.1567,-0.1563,-0.1568,-0.1548,-0.1536,-0.154,-0.1543,-0.1496,-0.1496,-0.1496,0,0,-0.1128,-0.113,-0.1147,-0.1181,-0.1224,-0.1248,-0.1265,-0.1318,-0.1351,-0.1425,-0.1429,-0.1468,-0.1536,-0.155,-0.1562,-0.1629,-0.1601,-0.1646,-0.1669,-0.1661,-0.1663,-0.1665,-0.1667,-0.1669,-0.1656,-0.1656,-0.1656,0,-0.1141,-0.1159,-0.1166,-0.1202,-0.1233,-0.1263,-0.1309,-0.1349,-0.1425,-0.1442,-0.1461,-0.1532,-0.1558,-0.1594,-0.1623,-0.1643,-0.1635,-0.1632,-0.1667,-0.1668,-0.1669,-0.1671,-0.1672,-0.1659,-0.1659,-0.1658,-0.1658,0,-0.1172,-0.1204,-0.1221,-0.1267,-0.1308,-0.1354,-0.1401,-0.1449,-0.1485,-0.1515,-0.157,-0.1606,-0.1633,-0.1661,-0.1667,-0.1691,-0.1684,-0.167,-0.1637,-0.1676,-0.1677,-0.1677,-0.1663,-0.1662,-0.1661,-0.1661,0,0,-0.1152,-0.1227,-0.1236,-0.1272,-0.1346,-0.1379,-0.1446,-0.15,-0.1518,-0.1596,-0.1616,-0.1683,-0.1678,-0.169,-0.1701,-0.1711,-0.173,-0.17,-0.1698,-0.1689,-0.1719,-0.1579,-0.1565,-0.1721,-0.172,-0.172,-0.1726,0,-0.1178,-0.125,-0.1283,-0.1365,-0.1407,-0.1452,-0.1502,-0.1554,-0.1589,-0.162,-0.1646,-0.1673,-0.1696,-0.1702,-0.1717,-0.1716,-0.1727,-0.1729,-0.1693,-0.1692,-0.155,-0.1559,-0.1719,-0.1726,-0.1726,-0.1726,-0.1725,0,-0.1191,-0.1241,-0.1322,-0.1399,-0.1418,-0.147,-0.1523,-0.1572,-0.1608,-0.163,-0.1652,-0.166,-0.169,-0.1693,-0.1715,-0.1715,-0.1718,-0.1723,-0.1722,-0.1562,-0.1549,-0.1674,-0.1725,-0.1725,-0.1725,-0.1725,-0.1725,0,-0.1159,-0.126,-0.1322,-0.1357,-0.1453,-0.1484,-0.1525,-0.157,-0.1587,-0.1618,-0.1613,-0.1653,-0.1649,-0.1673,-0.169,-0.1701,-0.1697,-0.1708,-0.159,-0.1582,-0.1685,-0.1683,-0.1708,-0.1708,-0.1707,-0.1707,-0.1707,0,-0.1153,-0.1202,-0.1313,-0.1348,-0.14,-0.147,-0.1501,-0.1536,-0.1564,-0.1544,-0.1601,-0.1568,-0.1638,-0.1642,-0.1677,-0.1619,-0.1685,-0.1575,-0.156,-0.1713,-0.1714,-0.1687,-0.1684,-0.1708,-0.1708,-0.1708,-0.1708,0,-0.1092,-0.1174,-0.1248,-0.1358,-0.1387,-0.1418,-0.1477,-0.1474,-0.1518,-0.1485,-0.1487,-0.1506,-0.1484,-0.1551,-0.1573,-0.156,-0.1553,-0.1521,-0.1686,-0.1683,-0.1456,-0.1457,-0.1381,-0.1376,-0.1371,-0.1367,-0.1364,0,-0.1059,-0.1097,-0.1231,-0.1262,-0.131,-0.1364,-0.1374,-0.1439,-0.1413,-0.1412,-0.1363,-0.1359,-0.1358,-0.1297,-0.1379,-0.1424,-0.1419,-0.1428,-0.1434,-0.1422,-0.1416,-0.1424,-0.1431,-0.1357,-0.1356,-0.1355,-0.1354,0,-0.0988,-0.105,-0.1112,-0.1182,-0.1218,-0.1244,-0.1258,-0.1232,-0.1255,-0.1305,-0.1199,-0.1185,-0.1143,-0.1174,-0.1211,-0.125,-0.143,-0.1381,-0.1391,-0.1397,-0.1393,-0.1393,-0.1405,-0.1338,-0.1341,-0.1342,-0.1343,0,-0.0924,-0.0945,-0.1032,-0.1078,-0.1121,-0.11,-0.1132,-0.1086,-0.1081,-0.1078,-0.1028,-0.1044,-0.1082,-0.1078,-0.1113,-0.1132,-0.1128,-0.1133,-0.1156,-0.1174,-0.1105,-0.107,-0.0882,0,0,0,0,0,-0.085,-0.0865,-0.0908,-0.0957,-0.0992,-0.1017,-0.1031,-0.1055,-0.1066,-0.0951,-0.0992,-0.0945,-0.0937,-0.0962,-0.0943,-0.1043,-0.1157,-0.102,-0.1181,-0.1253,-0.1271,-0.1211,0,0,0,0,0,0,-0.0799,-0.0844,-0.0875,-0.0841,-0.0844,-0.0858,-0.0868,-0.0887,-0.083,-0.0854,-0.0856,-0.0892,-0.0911,-0.0932,-0.0922,-0.0936,-0.102,-0.1053,-0.105,-0.1243,-0.1259,-0.1273,-0.1218,0,0,0,0,0]},{"header":{"parameterUnit":"m.s-1","parameterCategory":2,"la1":30.2991,"la2":30.254,"lo1":-89.0895,"lo2":-89.0444,"dy":0.0017,"dx":0.0017,"nx":28,"ny":28,"refTime":"2024-06-23T21:00:00:Z","depth":"4","parameterNumber":3,"parameterNumberName":"V-component_of_CURRENTS"},"data":[0,0,0,0,0,0,0,0,0,0,0,0,0,0,0,0,0,0,0,0,0,0,0,0,0,0,0,0,0,0,0,0,0,0,0,0,0,0,0,0,0,0,0,0,0,0,0,0,0,0,0,0,0,0,0,0,0,0,0.0166,0.0166,0,0.0234,0.0235,0.0236,0.0262,0.0262,0.0262,0.0261,0.0373,0.0377,0.038,0,0,0,0,0,0,0,0,0,0,0,0,0,0.0164,0.0163,0.0166,0.0166,0.0167,0.0234,0.0235,0.0237,0.0263,0.0262,0.0262,0.0261,0.0372,0.0376,0.038,0,0,0,0,0,0,0,0,0,0,0,0,0,0.0193,0.0163,0.0166,0.0187,0.0189,0.0234,0.0235,0.0237,0.0263,0.0262,0.0261,0.0261,0.0371,0.0376,0.0381,0.0423,0,0,0.0396,0.0398,0,0,0,0,0,0,0,0,0.0192,0.0194,0.0183,0.0185,0.0188,0.0238,0.0276,0.0301,0.0263,0.0237,0.0261,0.0261,0.0331,0.0339,0.0356,0.0428,0.0433,0.0396,0.0399,0.0402,0.0403,0,0,0,0,0,0,0,0.0189,0.0191,0.0195,0.0184,0.0187,0.0229,0.0232,0.0281,0.0289,0.0239,0.0241,0.0245,0.0333,0.0351,0.0359,0.0435,0.0396,0.0401,0.0404,0.0406,0.0578,0.0579,0,0,0,0,0,0,0.0172,0.0189,0.0193,0.0197,0.0186,0.0229,0.0232,0.0224,0.0287,0.0295,0.0246,0.0246,0.0343,0.0353,0.0363,0.0417,0.0402,0.0406,0.0409,0.0576,0.0578,0.058,0,0,0,0,0,0,0.0171,0.0171,0.019,0.0194,0.0199,0.0229,0.022,0.0225,0.0244,0.0291,0.0301,0.0258,0.0342,0.0356,0.0419,0.0421,0.0409,0.0413,0.0575,0.0577,0.0579,0.0525,0,0,0,0,0,0,0.0171,0.017,0.0164,0.0192,0.0198,0.0218,0.022,0.0227,0.0247,0.0248,0.0305,0.0315,0.0343,0.0411,0.0424,0.0428,0.0417,0.0573,0.0576,0.0578,0.0525,0.0525,0.0526,0,0,0,0,0,0.017,0.0161,0.0162,0.0163,0.0185,0.0218,0.0226,0.0247,0.0248,0.0261,0.0305,0.0313,0.0439,0.0417,0.0431,0.0436,0.0571,0.0575,0.0578,0.0525,0.0525,0.0526,0,0,0,0,0,0,0.0159,0.0163,0.0166,0.0158,0.0186,0.0222,0.0232,0.0249,0.0293,0.0295,0.0337,0.0352,0.0406,0.0441,0.0416,0.0499,0.0505,0.0512,0.046,0.0461,0.0461,0.0426,0.0421,0,0,0,0,0,0.0152,0.0142,0.0165,0.0161,0.0171,0.0203,0.0219,0.0236,0.0275,0.0293,0.0336,0.0386,0.0433,0.046,0.0511,0.0561,0.0595,0.0576,0.0576,0.0576,0.056,0.062,0.0623,0.0592,0.0592,0.0591,0,0,0.0148,0.0147,0.0144,0.0158,0.0178,0.0193,0.0211,0.0235,0.025,0.0301,0.0342,0.0391,0.0449,0.05,0.0527,0.0527,0.0609,0.058,0.0579,0.0564,0.0624,0.0627,0.0629,0.0594,0.0594,0.0593,0,0,0.0137,0.0133,0.0125,0.0145,0.0169,0.019,0.0195,0.0238,0.0257,0.0309,0.0345,0.0396,0.0475,0.051,0.0538,0.0577,0.061,0.0598,0.0567,0.0625,0.0627,0.063,0.0692,0.07,0.0596,0.0596,0.0596,0,0.0132,0.0118,0.0134,0.0137,0.0144,0.0184,0.0188,0.022,0.0281,0.0293,0.0317,0.0421,0.0474,0.0518,0.0533,0.0572,0.0614,0.0552,0.0622,0.0624,0.0627,0.0691,0.0701,0.0594,0.0594,0.0594,0.0594,0,0.0119,0.0113,0.0112,0.0118,0.0135,0.0147,0.0183,0.0209,0.0237,0.0267,0.0322,0.0401,0.0452,0.0487,0.0522,0.0568,0.0596,0.0612,0.0607,0.0626,0.0694,0.0705,0.059,0.0591,0.0592,0.0592,0,0,0.0096,0.0099,0.0099,0.0089,0.0122,0.0129,0.0152,0.0177,0.0175,0.0251,0.0256,0.0356,0.0387,0.0422,0.0477,0.0534,0.0606,0.0577,0.0582,0.0616,0.0743,0.0688,0.0695,0.0633,0.0634,0.0635,0.0786,0,0.008,0.0063,0.0075,0.0067,0.0061,0.0092,0.0103,0.0131,0.0164,0.0187,0.026,0.0299,0.0365,0.0386,0.0453,0.0563,0.063,0.0564,0.0739,0.0744,0.0673,0.0703,0.0639,0.0794,0.0796,0.0798,0.08,0,0.0065,0.0049,0.0031,0.0016,0.0016,0.002,0.0019,0.0038,0.0079,0.0103,0.015,0.0204,0.0292,0.0344,0.0533,0.0489,0.0608,0.07,0.0709,0.0676,0.0708,0.0772,0.082,0.0818,0.0817,0.0815,0.0814,0,0.0028,0.0017,-0.0009,-0.0008,-0.0009,-0.0019,-0.0016,0.0011,0.0014,0.0047,0.0057,0.0153,0.0218,0.0361,0.0555,0.0546,0.0769,0.078,0.0848,0.0847,0.0873,0.0869,0.0915,0.0915,0.0914,0.0914,0.0914,0,0.0002,-0.0017,-0.0032,-0.0045,-0.0081,-0.0065,-0.009,-0.0077,-0.0061,-0.0042,0.0012,0.0063,0.0229,0.0372,0.0536,0.0724,0.0762,0.0841,0.0877,0.0852,0.0844,0.0882,0.0876,0.092,0.0918,0.0917,0.0916,0,-0.0021,-0.003,-0.0064,-0.0087,-0.0097,-0.012,-0.0136,-0.0149,-0.0128,-0.0102,-0.0093,0.0012,0.0205,0.038,0.0631,0.0702,0.0883,0.095,0.0917,0.0949,0.0927,0.0917,0.1011,0.1011,0.101,0.1009,0.1009,0,-0.0033,-0.0051,-0.0097,-0.0121,-0.0131,-0.0162,-0.0178,-0.0179,-0.018,-0.0103,-0.0085,0.0068,0.0172,0.0487,0.0649,0.0909,0.0947,0.0997,0.0944,0.0909,0.0935,0.0926,0.0918,0.1008,0.1008,0.1007,0.1007,0,-0.0047,-0.0063,-0.0091,-0.0142,-0.0173,-0.0209,-0.0226,-0.0238,-0.0203,-0.019,-0.0042,0.0093,0.0299,0.0505,0.0695,0.0887,0.092,0.0991,0.0993,0.0944,0.0906,0.0931,0.0923,0.1005,0.1005,0.1005,0.1006,0,-0.0047,-0.0071,-0.0104,-0.0145,-0.0192,-0.0219,-0.0243,-0.0206,-0.0198,-0.011,-0.0042,0.0171,0.0294,0.0499,0.069,0.0837,0.086,0.0858,0.0867,0.0871,0.076,0.0686,0.0748,0,0,0,0,0,-0.0033,-0.005,-0.0098,-0.0142,-0.0191,-0.0198,-0.0247,-0.026,-0.0231,-0.012,-0.008,0.013,0.0382,0.0486,0.0634,0.0645,0.0853,0.0808,0.0848,0.0992,0.0994,0.0878,0,0,0,0,0,0,-0.0024,-0.0057,-0.0084,-0.0119,-0.0132,-0.0172,-0.0193,-0.0185,-0.0128,-0.0074,0.0081,0.0143,0.0406,0.0357,0.0655,0.0689,0.0715,0.0934,0.0934,0.099,0.0993,0.0995,0.0876,0,0,0,0,0]}]]